Погода в Чимкенте

Узбекистан     40°29′19″N   71°39′07″E
темп.,
°C
ветер,
м/с
пор.,
м/с
влажн.,
%
обл.,
%
осадки,
мм/ч
давл.,
гПа
погр.,
м
1 марта, пн
пн123:00+4в11370 0.0 102622
02:00+2св11491 0.0 102522
05:00+1в11531 0.0 102622
08:00+3всв235096 0.0 102685
11:00+8ссв223265 0.0 1023531
14:00+12ссв11220 0.0 1021909
17:00+12сз01210 0.0 1022879
20:00+9вюв11280 0.0 102622
2 марта, вт
вт223:00+7в11330 0.0 102822
02:00+6всв11370 0.0 102822
05:00+5всв124442 0.0 102723
08:00+5с1144100 0.0 102740
11:00+10ссз1129100 0.0 1024397
14:00+14ссв1121100 0.0 1022777
17:00+14ссв1120100 0.0 1022659
20:00+11св2224100 0.0 102422
3 марта, ср
ср323:00+10ююв0127100 0.0 102422
02:00+9зюз1230100 0.0 102422
05:00+8зюз1133100 0.0 102422
08:00+8св2549100 0.0 1024260
11:00+12ссв324696 0.0 10231271
14:00+13ссв3343100 0.0 10211446
17:00+12ссв5548100 0.0 1021611
20:00+9с4665100 0.0 1023360
4 марта, чт
чт423:00+7с237587 0.0 1024108
02:00+6всв128676 0.0 102431
05:00+5всв118877 0.0 102523
08:00+6св117791 0.0 102463
11:00+11ссв345371 0.0 1021942
14:00+14всв333869 0.0 10181144
17:00+14зсз123684 0.0 10191247
20:00+12з4845100 0.0 1023292
5 марта, пт
пт523:00+11ю6957100 0.0 1024278
02:00+10ююв025796 0.0 102342
05:00+9всв116998 0.0 102231
08:00+8зюз91471100 2.8 1024961
11:00+12зюз81140100 3.1 10251127
14:00+13зсз3436100 0.0 10231439
17:00+13с223596 0.0 10241347
20:00+9в376937 0.0 1026244